sat.trackr.live / text

‹ back to catalog

STARLINK-31080

NORAD 58603 · 2023-200Q

PAYLOAD ACTIVE UNKNOWN

§ Identity

Operator
Country
US
Launch date
2023-12-19
Launch site
AFETR
Launch vehicle
Mass (kg)
RCS (m²)

Purposes: comms

External: N2YO · Heavens-Above · Gunter

§ Orbital elements

Epoch: 2026-05-25T03:09:35.936352Z

Period
94.27 min
Inclination
43.0047°
Eccentricity
0.0001315
Mean motion
15.27575260 rev/d
Perigee alt
482.2 km
Apogee alt
484.0 km
Semi-major
6,861.2 km
B*
3.9057e-5
RAAN
96.9687°
Arg perigee
265.5862°
Mean anomaly
94.4839°
Rev number
13,511

§ Raw data

STARLINK-310801 58603U 23200Q   26145.13166593  .00000813  00000+0  39057-4 0  99902 58603  43.0047  96.9687 0001315 265.5862  94.4839 15.27575260135119

JSON: /api/v1/satellites/58603 · /tle

For live sub-satellite position, see the globe view (requires WebGL).

§ Visibility from observer

Set your observer location to see the next 7 days of passes ≥ 10°. The values pass through the URL so the page stays shareable.

No JS? Fill the form by hand. The geolocation button needs JavaScript.